contact:dominique.lefevre@mio.osupytheas.fr, maurice.libes@osupytheas.fr, didier.mallarino@osupytheas.fr
Project:EMSO http://www.emso-fr.org/EMSO-France
Depth: 2436.0 m
Title:EMSO Ligure Ouest : Data MII capteur AQUADOPP
Date,Latitude,Longitude,X_East,Y_North,Z_Up,Amplitude_X,Amplitude_Y,Amplitude_Z,Batterie,SoundSpeed,Heading,Pitch,Roll,Pressure,TIS,Speed,Direction
, degrees North, degrees East, m.s-1, m.s-1,m.s-1, 1, 1, 1, Volt, m.s-1, degree, degree, degree, dbar, degree_C, m.s-1, degree
2023-09-02T00:04:03,42.805,6.029,0.018,-0.013,-0.039,105.0,103.0,103.0,13.4,1505.2,322.5,-0.8,1.8,2471.553,13.28,0.022,125.8
2023-09-02T00:07:03,42.805,6.029,-0.002,0.014,-0.021,104.0,103.0,102.0,13.4,1505.2,325.4,-0.8,1.8,2471.57,13.29,0.014,351.9
2023-09-02T00:10:03,42.805,6.029,0.031,0.004,-0.025,104.0,104.0,103.0,13.4,1505.2,329.3,-0.7,1.8,2471.594,13.29,0.031,82.7
2023-09-02T00:13:03,42.805,6.029,0.044,0.015,0.01,104.0,104.0,102.0,13.4,1505.2,343.7,-0.7,1.8,2471.528,13.29,0.046,71.2
2023-09-02T00:16:03,42.805,6.029,0.004,0.004,-0.032,104.0,102.0,103.0,13.4,1505.2,326.3,-0.7,1.8,2471.548,13.29,0.005,45.0
2023-09-02T00:19:03,42.805,6.029,0.02,-0.002,-0.007,104.0,104.0,102.0,13.4,1505.2,326.9,-0.8,1.8,2471.517,13.29,0.02,95.7
2023-09-02T00:22:03,42.805,6.029,0.015,0.016,-0.013,104.0,103.0,102.0,13.4,1505.2,327.9,-0.7,1.8,2471.539,13.29,0.021,43.1
2023-09-02T00:25:03,42.805,6.029,0.018,0.0,-0.016,104.0,104.0,103.0,13.4,1505.2,322.9,-0.7,1.8,2471.504,13.29,0.018,90.0
2023-09-02T00:28:03,42.805,6.029,0.0,0.004,-0.022,103.0,105.0,102.0,13.4,1505.2,331.1,-0.7,1.8,2471.505,13.29,0.004,0.0
2023-09-02T00:31:03,42.805,6.029,0.016,0.002,-0.028,103.0,103.0,102.0,13.4,1505.2,342.5,-0.7,1.8,2471.511,13.29,0.016,82.9
2023-09-02T00:34:03,42.805,6.029,0.017,-0.01,-0.004,104.0,103.0,103.0,13.4,1505.2,336.1,-0.8,1.8,2471.455,13.29,0.019,120.5
2023-09-02T00:37:03,42.805,6.029,0.022,-0.011,-0.033,104.0,105.0,102.0,13.3,1505.2,334.2,-0.8,1.8,2471.501,13.29,0.024,116.6
2023-09-02T00:40:03,42.805,6.029,0.037,-0.032,-0.024,103.0,103.0,102.0,13.4,1505.2,351.8,-0.8,1.8,2471.481,13.29,0.048,130.9
2023-09-02T00:43:03,42.805,6.029,0.018,0.003,0.004,104.0,104.0,101.0,13.4,1505.2,350.8,-0.7,1.8,2471.466,13.29,0.018,80.5
2023-09-02T00:46:03,42.805,6.029,0.024,0.004,-0.015,104.0,103.0,103.0,13.3,1505.2,342.5,-0.8,1.8,2471.438,13.29,0.024,80.5
2023-09-02T00:49:03,42.805,6.029,0.02,0.003,0.01,103.0,104.0,103.0,13.3,1505.2,343.1,-0.8,1.8,2471.468,13.29,0.02,81.5
2023-09-02T00:52:03,42.805,6.029,0.018,-0.013,-0.035,103.0,103.0,103.0,13.4,1505.2,334.4,-0.8,1.8,2471.472,13.29,0.022,125.8
2023-09-02T00:55:03,42.805,6.029,0.021,0.016,-0.006,104.0,104.0,101.0,13.4,1505.2,336.3,-0.8,1.8,2471.452,13.29,0.026,52.7
2023-09-02T00:58:03,42.805,6.029,0.022,0.022,-0.022,104.0,104.0,102.0,13.4,1505.2,324.5,-0.8,1.8,2471.435,13.29,0.031,45.0
2023-09-02T01:04:03,42.805,6.029,0.027,-0.008,-0.022,104.0,104.0,103.0,13.4,1505.2,337.9,-0.8,1.8,2471.481,13.28,0.028,106.5
2023-09-02T01:07:03,42.805,6.029,0.034,0.02,-0.018,104.0,103.0,104.0,13.4,1505.2,327.1,-0.8,1.8,2471.524,13.29,0.039,59.5
2023-09-02T01:10:03,42.805,6.029,0.01,-0.02,-0.013,104.0,104.0,101.0,13.3,1505.2,339.3,-0.8,1.8,2471.479,13.29,0.022,153.4
2023-09-02T01:13:03,42.805,6.029,0.031,0.007,-0.016,103.0,104.0,102.0,13.3,1505.2,332.2,-0.8,1.8,2471.494,13.29,0.031,77.3
2023-09-02T01:16:03,42.805,6.029,0.023,0.013,0.012,104.0,104.0,102.0,13.4,1505.2,331.9,-0.7,1.8,2471.467,13.29,0.026,60.5
2023-09-02T01:19:03,42.805,6.029,0.043,-0.001,0.0,104.0,103.0,101.0,13.4,1505.2,326.0,-0.7,1.8,2471.438,13.29,0.043,91.3
2023-09-02T01:22:03,42.805,6.029,0.038,-0.001,0.013,104.0,101.0,103.0,13.4,1505.2,330.2,-0.7,1.8,2471.46,13.29,0.038,91.5
2023-09-02T01:25:03,42.805,6.029,0.036,0.013,0.001,105.0,102.0,102.0,13.3,1505.2,328.2,-0.8,1.8,2471.419,13.29,0.038,70.1
2023-09-02T01:28:03,42.805,6.029,0.031,-0.023,-0.025,104.0,104.0,101.0,13.4,1505.2,345.2,-0.8,1.8,2471.471,13.29,0.038,126.6
2023-09-02T01:31:03,42.805,6.029,0.033,0.004,-0.005,104.0,103.0,102.0,13.3,1505.2,345.0,-0.8,1.8,2471.445,13.29,0.033,83.1
2023-09-02T01:34:03,42.805,6.029,0.012,0.014,-0.003,102.0,106.0,102.0,13.3,1505.2,342.2,-0.8,1.8,2471.479,13.29,0.018,40.6
2023-09-02T01:37:03,42.805,6.029,0.025,0.003,-0.012,104.0,103.0,102.0,13.4,1505.2,348.9,-0.8,1.8,2471.454,13.29,0.025,83.2
2023-09-02T01:40:03,42.805,6.029,0.038,0.0,-0.008,103.0,104.0,101.0,13.3,1505.2,343.3,-0.8,1.8,2471.404,13.29,0.038,90.0
2023-09-02T01:43:03,42.805,6.029,0.026,0.003,-0.039,105.0,103.0,103.0,13.4,1505.2,325.5,-0.7,1.8,2471.404,13.29,0.026,83.4
2023-09-02T01:46:03,42.805,6.029,0.03,0.008,-0.003,104.0,102.0,102.0,13.3,1505.2,323.5,-0.7,1.8,2471.442,13.29,0.031,75.1
2023-09-02T01:49:03,42.805,6.029,0.015,0.003,-0.03,103.0,103.0,102.0,13.4,1505.2,327.0,-0.7,1.8,2471.434,13.29,0.015,78.7
2023-09-02T01:52:03,42.805,6.029,0.02,-0.01,-0.02,103.0,103.0,102.0,13.4,1505.2,324.6,-0.8,1.8,2471.448,13.29,0.022,116.6
2023-09-02T01:55:03,42.805,6.029,0.022,0.002,-0.018,104.0,103.0,102.0,13.4,1505.2,346.4,-0.8,1.8,2471.409,13.29,0.022,84.8
2023-09-02T01:58:03,42.805,6.029,0.011,0.017,-0.021,104.0,103.0,101.0,13.4,1505.2,329.2,-0.8,1.8,2471.444,13.29,0.02,32.9
2023-09-02T02:04:03,42.805,6.029,0.006,-0.005,0.0,103.0,103.0,102.0,13.4,1505.2,345.2,-0.8,1.8,2471.401,13.28,0.007,129.8
2023-09-02T02:07:03,42.805,6.029,0.028,0.0,-0.006,104.0,104.0,101.0,13.4,1505.2,342.6,-0.8,1.8,2471.471,13.29,0.028,90.0
2023-09-02T02:10:03,42.805,6.029,0.008,0.012,-0.014,103.0,104.0,102.0,13.4,1505.2,341.2,-0.8,1.8,2471.451,13.29,0.014,33.7
2023-09-02T02:13:03,42.805,6.029,0.013,0.015,-0.016,103.0,103.0,101.0,13.4,1505.2,333.8,-0.8,1.8,2471.42,13.29,0.019,40.9
2023-09-02T02:16:03,42.805,6.029,0.021,0.023,-0.004,104.0,103.0,101.0,13.3,1505.2,330.7,-0.8,1.8,2471.421,13.29,0.031,42.4
2023-09-02T02:19:03,42.805,6.029,0.012,0.005,-0.01,103.0,103.0,104.0,13.3,1505.2,339.7,-0.7,1.8,2471.399,13.29,0.013,67.4
2023-09-02T02:22:03,42.805,6.029,0.039,0.029,-0.001,104.0,104.0,102.0,13.3,1505.2,330.9,-0.8,1.8,2471.41,13.29,0.048,53.4
2023-09-02T02:25:03,42.805,6.029,0.028,0.01,-0.002,103.0,104.0,102.0,13.4,1505.2,330.5,-0.8,1.8,2471.428,13.29,0.029,70.4
2023-09-02T02:28:03,42.805,6.029,0.035,-0.001,0.002,104.0,103.0,102.0,13.4,1505.2,352.0,-0.7,1.8,2471.393,13.29,0.035,91.6
2023-09-02T02:31:03,42.805,6.029,0.039,0.01,0.008,104.0,104.0,101.0,13.4,1505.2,321.9,-0.8,1.8,2471.396,13.29,0.04,75.6
2023-09-02T02:34:03,42.805,6.029,0.032,0.003,0.003,104.0,103.0,102.0,13.4,1505.2,332.5,-0.8,1.8,2471.42,13.29,0.032,84.6
2023-09-02T02:37:03,42.805,6.029,0.041,-0.013,-0.013,104.0,104.0,103.0,13.4,1505.2,332.0,-0.7,1.8,2471.407,13.29,0.043,107.6
2023-09-02T02:40:03,42.805,6.029,0.017,0.01,0.013,104.0,106.0,101.0,13.3,1505.2,333.4,-0.8,1.9,2471.394,13.29,0.019,59.5
2023-09-02T02:43:03,42.805,6.029,0.041,0.003,0.0,103.0,104.0,101.0,13.4,1505.2,349.1,-0.8,1.8,2471.443,13.29,0.041,85.8
2023-09-02T02:46:03,42.805,6.029,0.022,0.034,0.029,103.0,104.0,102.0,13.4,1505.2,347.5,-0.8,1.8,2471.385,13.29,0.04,32.9
2023-09-02T02:49:03,42.805,6.029,0.017,0.0,-0.035,104.0,104.0,102.0,13.3,1505.2,333.8,-0.7,1.8,2471.376,13.29,0.017,90.0
2023-09-02T02:52:03,42.805,6.029,0.035,-0.006,-0.019,104.0,103.0,101.0,13.3,1505.2,322.7,-0.7,1.8,2471.429,13.29,0.035,99.7
2023-09-02T02:55:03,42.805,6.029,0.048,-0.003,0.006,104.0,104.0,102.0,13.4,1505.2,337.8,-0.8,1.8,2471.382,13.29,0.048,93.6
2023-09-02T02:58:03,42.805,6.029,0.039,0.015,0.008,104.0,104.0,102.0,13.4,1505.2,353.8,-0.7,1.8,2471.382,13.29,0.041,69.0
2023-09-02T03:04:03,42.805,6.029,0.026,0.023,-0.014,104.0,104.0,102.0,13.4,1505.2,327.8,-0.8,1.8,2471.404,13.28,0.034,48.5
2023-09-02T03:07:03,42.805,6.029,0.031,0.021,-0.007,104.0,104.0,103.0,13.3,1505.2,333.8,-0.8,1.9,2471.404,13.29,0.037,55.9
2023-09-02T03:10:03,42.805,6.029,0.025,0.002,-0.014,103.0,104.0,102.0,13.4,1505.2,341.2,-0.8,1.8,2471.443,13.29,0.025,85.4
2023-09-02T03:13:03,42.805,6.029,0.037,0.019,-0.011,104.0,104.0,102.0,13.4,1505.2,347.3,-0.8,1.8,2471.423,13.29,0.041,62.8
2023-09-02T03:16:03,42.805,6.029,0.039,0.0,0.007,103.0,104.0,102.0,13.4,1505.2,344.5,-0.8,1.8,2471.412,13.29,0.039,90.0
2023-09-02T03:19:03,42.805,6.029,0.033,0.011,0.003,104.0,103.0,102.0,13.3,1505.2,338.0,-0.8,1.8,2471.393,13.29,0.034,71.6
2023-09-02T03:22:03,42.805,6.029,0.042,-0.007,-0.012,105.0,102.0,102.0,13.3,1505.2,350.3,-0.8,1.8,2471.41,13.29,0.042,99.5
2023-09-02T03:25:03,42.805,6.029,0.044,0.0,-0.002,104.0,103.0,102.0,13.4,1505.2,350.9,-0.8,1.8,2471.426,13.29,0.044,90.0
2023-09-02T03:28:03,42.805,6.029,0.027,0.011,-0.027,104.0,104.0,102.0,13.4,1505.2,326.5,-0.8,1.8,2471.376,13.29,0.029,67.8
2023-09-02T03:31:03,42.805,6.029,0.041,0.003,-0.017,105.0,104.0,102.0,13.4,1505.2,344.8,-0.8,1.8,2471.388,13.29,0.041,85.8
2023-09-02T03:34:03,42.805,6.029,0.029,0.006,0.007,104.0,104.0,102.0,13.4,1505.2,336.0,-0.8,1.8,2471.347,13.29,0.029,78.3
2023-09-02T03:37:03,42.805,6.029,0.017,0.013,-0.024,104.0,105.0,102.0,13.4,1505.2,346.2,-0.7,1.8,2471.401,13.29,0.021,52.6
2023-09-02T03:40:03,42.805,6.029,0.028,-0.004,-0.039,104.0,104.0,102.0,13.3,1505.2,347.9,-0.8,1.8,2471.387,13.29,0.028,98.1
2023-09-02T03:43:03,42.805,6.029,0.023,0.014,0.013,105.0,104.0,102.0,13.4,1505.2,324.0,-0.8,1.8,2471.357,13.29,0.026,58.7
2023-09-02T03:46:03,42.805,6.029,0.031,0.014,0.01,103.0,104.0,102.0,13.4,1505.2,335.3,-0.8,1.8,2471.387,13.29,0.034,65.7
2023-09-02T03:49:03,42.805,6.029,0.048,-0.014,0.011,103.0,105.0,102.0,13.3,1505.2,350.9,-0.8,1.8,2471.399,13.29,0.05,106.3
2023-09-02T03:52:03,42.805,6.029,0.01,0.012,0.025,102.0,106.0,103.0,13.3,1505.2,327.3,-0.8,1.8,2471.363,13.29,0.015,39.8
2023-09-02T03:55:03,42.805,6.029,0.035,-0.005,0.001,104.0,104.0,102.0,13.4,1505.2,347.0,-0.8,1.8,2471.425,13.29,0.035,98.1
2023-09-02T03:58:03,42.805,6.029,0.018,-0.007,0.02,104.0,103.0,102.0,13.4,1505.2,353.0,-0.8,1.8,2471.393,13.29,0.019,111.2
2023-09-02T04:04:03,42.805,6.029,0.025,-0.022,0.002,106.0,103.0,103.0,13.4,1505.2,343.7,-0.8,1.8,2471.426,13.28,0.033,131.3
2023-09-02T04:07:03,42.805,6.029,0.034,0.002,-0.004,104.0,104.0,102.0,13.4,1505.2,342.8,-0.8,1.8,2471.429,13.29,0.034,86.6
2023-09-02T04:10:03,42.805,6.029,0.024,-0.008,-0.003,104.0,104.0,102.0,13.4,1505.2,350.0,-0.7,1.9,2471.428,13.29,0.025,108.4
2023-09-02T04:13:03,42.805,6.029,0.031,0.01,0.005,103.0,104.0,101.0,13.4,1505.2,326.5,-0.7,1.8,2471.445,13.29,0.032,72.1
2023-09-02T04:16:03,42.805,6.029,0.007,0.0,-0.014,103.0,103.0,103.0,13.3,1505.2,333.0,-0.7,1.8,2471.382,13.29,0.007,90.0
2023-09-02T04:19:03,42.805,6.029,0.025,0.001,-0.038,104.0,105.0,102.0,13.4,1505.2,353.5,-0.8,1.8,2471.437,13.29,0.025,87.7
2023-09-02T04:22:03,42.805,6.029,0.023,-0.021,-0.023,105.0,103.0,102.0,13.4,1505.2,329.3,-0.8,1.8,2471.387,13.29,0.031,132.4
2023-09-02T04:25:03,42.805,6.029,0.044,0.0,0.004,104.0,103.0,102.0,13.4,1505.2,345.9,-0.7,1.8,2471.384,13.29,0.044,90.0
2023-09-02T04:28:03,42.805,6.029,0.016,-0.008,-0.032,104.0,104.0,102.0,13.4,1505.2,353.4,-0.7,1.8,2471.385,13.29,0.017,116.6
2023-09-02T04:31:03,42.805,6.029,0.034,0.003,0.002,104.0,104.0,102.0,13.4,1505.2,322.3,-0.8,1.8,2471.391,13.29,0.034,85.0
2023-09-02T04:34:03,42.805,6.029,0.037,-0.002,0.001,104.0,104.0,102.0,13.4,1505.2,343.7,-0.8,1.8,2471.409,13.29,0.037,93.1
2023-09-02T04:37:03,42.805,6.029,0.019,0.012,0.017,104.0,104.0,102.0,13.4,1505.2,333.4,-0.8,1.8,2471.373,13.29,0.022,57.7
2023-09-02T04:40:03,42.805,6.029,0.027,-0.015,-0.002,103.0,103.0,103.0,13.4,1505.2,348.2,-0.8,1.8,2471.404,13.29,0.03,119.1
2023-09-02T04:43:03,42.805,6.029,0.038,-0.006,-0.032,103.0,104.0,103.0,13.4,1505.2,339.0,-0.8,1.9,2471.394,13.29,0.038,99.0
2023-09-02T04:46:03,42.805,6.029,0.021,0.028,0.011,105.0,105.0,101.0,13.4,1505.2,352.8,-0.8,1.8,2471.471,13.29,0.035,36.9
2023-09-02T04:49:03,42.805,6.029,0.018,0.006,-0.014,103.0,103.0,102.0,13.4,1505.2,334.4,-0.7,1.8,2471.428,13.29,0.018,71.6
2023-09-02T04:52:03,42.805,6.029,0.033,0.014,0.018,103.0,105.0,102.0,13.3,1505.2,344.8,-0.8,1.8,2471.408,13.29,0.035,67.0
2023-09-02T04:55:03,42.805,6.029,0.052,-0.011,0.008,104.0,103.0,101.0,13.4,1505.2,330.6,-0.8,1.8,2471.401,13.29,0.053,101.9
2023-09-02T04:58:03,42.805,6.029,0.035,-0.007,-0.004,104.0,105.0,101.0,13.3,1505.2,341.5,-0.8,1.8,2471.419,13.29,0.035,101.3
2023-09-02T05:04:03,42.805,6.029,0.04,-0.011,0.007,104.0,104.0,102.0,13.4,1505.2,346.2,-0.8,1.8,2471.514,13.28,0.041,105.4
2023-09-02T05:07:03,42.805,6.029,0.026,0.0,-0.007,103.0,103.0,102.0,13.4,1505.2,334.9,-0.8,1.8,2471.469,13.29,0.026,90.0
2023-09-02T05:10:03,42.805,6.029,0.0,0.0,-0.009,105.0,105.0,101.0,13.4,1505.2,344.0,-0.7,1.8,2471.459,13.29,0.0,0.0
2023-09-02T05:13:03,42.805,6.029,0.032,0.003,0.024,104.0,103.0,102.0,13.4,1505.2,348.2,-0.8,1.8,2471.459,13.29,0.032,84.6
2023-09-02T05:16:03,42.805,6.029,0.024,0.006,-0.007,102.0,104.0,103.0,13.3,1505.2,334.4,-0.7,1.8,2471.484,13.29,0.024,76.0
2023-09-02T05:19:03,42.805,6.029,0.041,-0.015,-0.007,105.0,101.0,103.0,13.4,1505.2,346.2,-0.7,1.8,2471.469,13.29,0.043,110.1
2023-09-02T05:22:03,42.805,6.029,0.025,-0.008,0.001,103.0,102.0,102.0,13.4,1505.2,335.8,-0.8,1.8,2471.428,13.29,0.026,107.7
2023-09-02T05:25:03,42.805,6.029,0.024,-0.001,-0.007,102.0,104.0,102.0,13.3,1505.2,342.7,-0.7,1.8,2471.448,13.29,0.024,92.4
2023-09-02T05:28:03,42.805,6.029,0.024,-0.006,-0.018,103.0,104.0,103.0,13.3,1505.2,348.9,-0.8,1.8,2471.427,13.29,0.024,104.0
2023-09-02T05:31:03,42.805,6.029,0.033,-0.011,-0.028,103.0,103.0,103.0,13.3,1505.2,336.5,-0.8,1.8,2471.475,13.29,0.034,108.4
2023-09-02T05:34:03,42.805,6.029,0.051,0.007,0.019,103.0,105.0,102.0,13.4,1505.2,335.8,-0.8,1.8,2471.477,13.29,0.051,82.2
2023-09-02T05:37:03,42.805,6.029,0.013,-0.04,-0.005,102.0,105.0,102.0,13.4,1505.2,349.5,-0.7,1.8,2471.441,13.29,0.042,162.0
2023-09-02T05:40:03,42.805,6.029,0.008,0.018,-0.017,104.0,103.0,102.0,13.4,1505.2,346.2,-0.8,1.8,2471.455,13.29,0.019,24.0
2023-09-02T05:43:03,42.805,6.029,0.032,-0.018,-0.02,104.0,104.0,102.0,13.3,1505.2,331.3,-0.8,1.8,2471.5,13.29,0.036,119.4
2023-09-02T05:46:03,42.805,6.029,0.011,-0.014,-0.001,104.0,103.0,102.0,13.4,1505.2,354.6,-0.8,1.8,2471.486,13.29,0.017,141.8
2023-09-02T05:49:03,42.805,6.029,0.047,0.001,-0.002,104.0,104.0,102.0,13.4,1505.2,323.5,-0.7,1.8,2471.488,13.29,0.047,88.8
2023-09-02T05:52:03,42.805,6.029,0.01,-0.017,-0.01,103.0,103.0,101.0,13.4,1505.2,332.5,-0.7,1.8,2471.511,13.29,0.019,149.5
2023-09-02T05:55:03,42.805,6.029,0.025,0.001,0.002,103.0,104.0,102.0,13.3,1505.2,332.9,-0.7,1.8,2471.48,13.29,0.025,87.7
2023-09-02T05:58:03,42.805,6.029,0.018,0.007,0.003,102.0,104.0,102.0,13.4,1505.2,326.8,-0.7,1.8,2471.511,13.29,0.019,68.8
2023-09-02T06:04:03,42.805,6.029,0.032,0.01,0.0,103.0,103.0,102.0,13.4,1505.2,344.3,-0.8,1.8,2471.528,13.28,0.033,72.6
2023-09-02T06:07:03,42.805,6.029,0.021,0.0,-0.011,104.0,104.0,101.0,13.4,1505.2,352.1,-0.8,1.8,2471.597,13.28,0.021,90.0
2023-09-02T06:10:03,42.805,6.029,-0.002,-0.005,-0.042,105.0,102.0,103.0,13.3,1505.2,326.3,-0.8,1.8,2471.523,13.29,0.005,201.8
2023-09-02T06:13:03,42.805,6.029,0.029,-0.012,-0.017,103.0,104.0,102.0,13.3,1505.2,330.3,-0.8,1.8,2471.547,13.29,0.031,112.5
2023-09-02T06:16:03,42.805,6.029,0.008,0.011,-0.013,101.0,103.0,102.0,13.4,1505.2,331.5,-0.8,1.8,2471.546,13.29,0.013,36.0
2023-09-02T06:19:03,42.805,6.029,0.019,-0.004,-0.014,103.0,103.0,102.0,13.4,1505.2,330.7,-0.8,1.8,2471.562,13.29,0.019,101.9
2023-09-02T06:22:03,42.805,6.029,0.017,0.019,-0.013,104.0,103.0,101.0,13.4,1505.2,329.8,-0.8,1.8,2471.544,13.29,0.025,41.8
2023-09-02T06:25:03,42.805,6.029,0.029,-0.007,-0.011,104.0,103.0,101.0,13.3,1505.2,351.8,-0.8,1.8,2471.532,13.29,0.029,103.6
2023-09-02T06:28:03,42.805,6.029,0.02,-0.002,-0.023,104.0,103.0,103.0,13.4,1505.2,342.2,-0.8,1.8,2471.539,13.29,0.02,95.7
2023-09-02T06:31:03,42.805,6.029,0.026,-0.011,-0.037,103.0,102.0,102.0,13.4,1505.2,343.3,-0.8,1.8,2471.521,13.29,0.028,112.9
2023-09-02T06:34:03,42.805,6.029,0.038,0.003,-0.018,104.0,103.0,102.0,13.4,1505.2,330.5,-0.8,1.9,2471.542,13.29,0.038,85.5
2023-09-02T06:37:03,42.805,6.029,0.041,-0.011,-0.022,102.0,103.0,102.0,13.4,1505.2,342.3,-0.8,1.8,2471.542,13.29,0.042,105.0
2023-09-02T06:40:03,42.805,6.029,0.026,-0.004,-0.015,105.0,105.0,101.0,13.4,1505.2,336.4,-0.8,1.8,2471.542,13.29,0.026,98.7
2023-09-02T06:43:03,42.805,6.029,0.032,-0.017,0.004,103.0,104.0,102.0,13.3,1505.2,330.3,-0.8,1.8,2471.553,13.29,0.036,118.0
2023-09-02T06:46:03,42.805,6.029,0.01,0.009,-0.01,104.0,102.0,103.0,13.4,1505.2,329.7,-0.8,1.8,2471.548,13.29,0.013,48.0
2023-09-02T06:49:03,42.805,6.029,0.029,-0.009,0.003,105.0,104.0,101.0,13.3,1505.2,351.7,-0.8,1.8,2471.57,13.29,0.03,107.2
2023-09-02T06:52:03,42.805,6.029,0.016,-0.003,-0.026,104.0,103.0,101.0,13.4,1505.2,337.2,-0.7,1.8,2471.551,13.29,0.016,100.6
2023-09-02T06:55:03,42.805,6.029,0.018,0.024,-0.004,104.0,104.0,102.0,13.3,1505.2,330.3,-0.7,1.8,2471.572,13.29,0.03,36.9
2023-09-02T06:58:03,42.805,6.029,0.013,-0.004,-0.026,104.0,104.0,102.0,13.4,1505.2,329.8,-0.8,1.8,2471.58,13.29,0.013,107.1
2023-09-02T07:04:03,42.805,6.029,0.027,0.008,-0.046,104.0,103.0,103.0,13.3,1505.2,352.1,-0.8,1.8,2471.61,13.28,0.028,73.5
2023-09-02T07:07:03,42.805,6.029,0.002,-0.003,-0.009,103.0,104.0,102.0,13.3,1505.2,339.7,-0.8,1.8,2471.606,13.29,0.003,146.3
2023-09-02T07:10:03,42.805,6.029,-0.001,-0.01,-0.016,103.0,102.0,103.0,13.4,1505.2,332.9,-0.8,1.8,2471.591,13.29,0.01,185.7
2023-09-02T07:13:03,42.805,6.029,0.0,0.003,-0.012,103.0,103.0,102.0,13.4,1505.2,324.2,-0.7,1.8,2471.568,13.29,0.003,0.0
2023-09-02T07:16:03,42.805,6.029,0.018,0.002,-0.002,104.0,104.0,102.0,13.4,1505.2,338.2,-0.8,1.8,2471.585,13.29,0.018,83.7
2023-09-02T07:19:03,42.805,6.029,0.008,0.001,-0.049,105.0,103.0,101.0,13.4,1505.2,336.5,-0.7,1.8,2471.577,13.29,0.008,82.9
2023-09-02T07:22:03,42.805,6.029,0.034,-0.005,-0.029,103.0,104.0,102.0,13.4,1505.2,332.1,-0.8,1.8,2471.562,13.29,0.034,98.4
2023-09-02T07:25:03,42.805,6.029,0.001,0.012,0.007,104.0,103.0,101.0,13.4,1505.2,333.8,-0.8,1.8,2471.564,13.29,0.012,4.8
2023-09-02T07:28:03,42.805,6.029,0.03,0.0,-0.008,104.0,104.0,101.0,13.4,1505.2,350.7,-0.7,1.8,2471.591,13.29,0.03,90.0
2023-09-02T07:31:03,42.805,6.029,0.017,0.0,-0.017,104.0,104.0,102.0,13.4,1505.2,341.9,-0.8,1.8,2471.595,13.29,0.017,90.0
2023-09-02T07:34:03,42.805,6.029,0.033,-0.004,-0.021,103.0,103.0,101.0,13.3,1505.2,333.9,-0.8,1.8,2471.594,13.29,0.033,96.9
2023-09-02T07:37:03,42.805,6.029,0.019,0.008,-0.009,104.0,103.0,102.0,13.4,1505.2,330.5,-0.8,1.8,2471.582,13.29,0.02,67.2
2023-09-02T07:40:03,42.805,6.029,0.022,-0.018,-0.021,103.0,103.0,103.0,13.4,1505.2,342.2,-0.7,1.8,2471.575,13.29,0.028,129.3
2023-09-02T07:43:03,42.805,6.029,0.017,0.002,-0.029,103.0,104.0,102.0,13.3,1505.2,330.8,-0.8,1.8,2471.576,13.29,0.017,83.3
2023-09-02T07:46:03,42.805,6.029,0.004,0.011,-0.015,103.0,104.0,101.0,13.4,1505.2,330.7,-0.8,1.8,2471.576,13.29,0.011,20.0
2023-09-02T07:49:03,42.805,6.029,0.043,-0.013,0.003,103.0,104.0,101.0,13.4,1505.2,326.5,-0.8,1.8,2471.584,13.29,0.044,106.8
2023-09-02T07:52:03,42.805,6.029,0.014,-0.005,-0.004,104.0,104.0,103.0,13.4,1505.2,335.1,-0.8,1.9,2471.603,13.29,0.014,109.6
2023-09-02T07:55:03,42.805,6.029,0.012,0.014,-0.03,105.0,104.0,101.0,13.4,1505.2,336.2,-0.7,1.8,2471.572,13.29,0.018,40.6
2023-09-02T07:58:03,42.805,6.029,0.038,-0.009,-0.005,105.0,104.0,102.0,13.3,1505.2,352.4,-0.8,1.8,2471.589,13.29,0.039,103.3
2023-09-02T08:04:03,42.805,6.029,0.025,-0.004,-0.012,105.0,103.0,102.0,13.4,1505.2,342.4,-0.7,1.8,2471.634,13.28,0.025,99.1
2023-09-02T08:07:03,42.805,6.029,0.006,0.014,-0.012,104.0,105.0,101.0,13.3,1505.2,328.2,-0.8,1.8,2471.647,13.29,0.015,23.2
2023-09-02T08:10:03,42.805,6.029,0.015,0.014,0.011,103.0,104.0,104.0,13.3,1505.2,342.3,-0.8,1.8,2471.617,13.29,0.02,47.0
2023-09-02T08:13:03,42.805,6.029,0.001,-0.001,-0.038,103.0,104.0,102.0,13.4,1505.2,344.3,-0.8,1.8,2471.591,13.29,0.001,135.0
2023-09-02T08:16:03,42.805,6.029,0.009,0.0,0.005,104.0,104.0,102.0,13.3,1505.2,328.5,-0.8,1.8,2471.6,13.29,0.009,90.0
2023-09-02T08:19:03,42.805,6.029,0.0,0.021,-0.001,104.0,104.0,102.0,13.4,1505.2,333.9,-0.8,1.8,2471.623,13.29,0.021,0.0
2023-09-02T08:22:03,42.805,6.029,0.018,-0.01,-0.007,103.0,104.0,102.0,13.4,1505.2,354.2,-0.8,1.8,2471.61,13.29,0.02,119.1
2023-09-02T08:25:03,42.805,6.029,0.025,-0.006,0.004,104.0,103.0,103.0,13.4,1505.2,347.9,-0.8,1.8,2471.554,13.29,0.025,103.5
2023-09-02T08:28:03,42.805,6.029,0.012,0.012,0.008,104.0,104.0,102.0,13.3,1505.2,344.9,-0.8,1.8,2471.603,13.29,0.016,45.0
2023-09-02T08:31:03,42.805,6.029,0.011,0.006,-0.024,103.0,105.0,101.0,13.3,1505.2,341.9,-0.8,1.8,2471.634,13.29,0.012,61.4
2023-09-02T08:34:03,42.805,6.029,0.027,-0.003,0.005,105.0,104.0,102.0,13.4,1505.2,340.8,-0.7,1.8,2471.586,13.29,0.027,96.3
2023-09-02T08:37:03,42.805,6.029,0.016,0.0,-0.013,104.0,105.0,102.0,13.4,1505.2,339.7,-0.8,1.8,2471.573,13.29,0.016,90.0
2023-09-02T08:40:03,42.805,6.029,0.026,0.004,-0.001,104.0,104.0,102.0,13.4,1505.2,348.9,-0.8,1.8,2471.573,13.29,0.026,81.3
2023-09-02T08:43:03,42.805,6.029,0.013,-0.014,0.002,104.0,104.0,102.0,13.3,1505.2,334.9,-0.8,1.8,2471.588,13.29,0.019,137.1
2023-09-02T08:46:03,42.805,6.029,0.026,-0.001,-0.011,103.0,104.0,102.0,13.4,1505.2,334.4,-0.8,1.8,2471.608,13.29,0.026,92.2
2023-09-02T08:49:03,42.805,6.029,-0.008,0.014,-0.035,103.0,104.0,102.0,13.4,1505.2,328.8,-0.8,1.8,2471.545,13.29,0.016,330.3
2023-09-02T08:52:03,42.805,6.029,0.018,-0.004,-0.012,104.0,104.0,102.0,13.4,1505.2,338.3,-0.8,1.8,2471.558,13.29,0.018,102.5
2023-09-02T08:55:03,42.805,6.029,0.004,0.026,-0.014,104.0,104.0,102.0,13.4,1505.2,338.3,-0.7,1.8,2471.584,13.29,0.026,8.7
2023-09-02T08:58:03,42.805,6.029,0.026,0.014,0.003,104.0,105.0,102.0,13.3,1505.2,330.9,-0.8,1.8,2471.566,13.29,0.029,61.7
2023-09-02T09:04:03,42.805,6.029,0.008,0.025,-0.017,104.0,104.0,102.0,13.4,1505.2,344.6,-0.8,1.8,2471.609,13.29,0.026,17.7
2023-09-02T09:07:03,42.805,6.029,0.002,0.005,0.01,104.0,103.0,102.0,13.3,1505.2,347.4,-0.8,1.9,2471.644,13.29,0.005,21.8
2023-09-02T09:10:03,42.805,6.029,-0.006,0.018,0.0,104.0,103.0,102.0,13.4,1505.2,327.5,-0.8,1.8,2471.613,13.29,0.018,341.6
2023-09-02T09:13:03,42.805,6.029,-0.001,0.004,-0.023,105.0,104.0,103.0,13.4,1505.2,325.0,-0.8,1.8,2471.618,13.29,0.004,346.0
2023-09-02T09:16:03,42.805,6.029,0.0,-0.003,-0.06,104.0,104.0,102.0,13.4,1505.2,332.3,-0.7,1.8,2471.605,13.29,0.003,180.0
2023-09-02T09:19:03,42.805,6.029,0.003,0.001,0.011,105.0,105.0,101.0,13.4,1505.2,344.5,-0.8,1.8,2471.612,13.29,0.003,71.6
2023-09-02T09:22:03,42.805,6.029,0.008,-0.007,-0.022,104.0,103.0,102.0,13.4,1505.2,334.4,-0.8,1.8,2471.537,13.29,0.01,131.2
2023-09-02T09:25:03,42.805,6.029,0.021,0.0,-0.017,104.0,104.0,102.0,13.4,1505.2,346.9,-0.8,1.8,2471.616,13.29,0.021,90.0
2023-09-02T09:28:03,42.805,6.029,0.0,-0.006,-0.025,103.0,104.0,102.0,13.4,1505.2,339.5,-0.7,1.8,2471.61,13.29,0.006,180.0
2023-09-02T09:31:03,42.805,6.029,0.007,0.007,-0.007,104.0,103.0,102.0,13.4,1505.2,351.5,-0.8,1.8,2471.549,13.29,0.009,45.0
2023-09-02T09:34:03,42.805,6.029,0.002,0.001,-0.008,104.0,103.0,102.0,13.4,1505.2,343.0,-0.8,1.9,2471.559,13.29,0.002,63.4
2023-09-02T09:37:03,42.805,6.029,0.013,0.009,-0.011,104.0,104.0,102.0,13.4,1505.2,333.9,-0.8,1.8,2471.552,13.29,0.015,55.3
2023-09-02T09:40:03,42.805,6.029,0.001,0.011,-0.034,104.0,104.0,102.0,13.4,1505.2,326.3,-0.7,1.8,2471.591,13.29,0.011,5.2
2023-09-02T09:43:03,42.805,6.029,0.014,0.021,-0.017,105.0,103.0,102.0,13.4,1505.2,346.7,-0.8,1.8,2471.548,13.29,0.025,33.7
2023-09-02T09:46:03,42.805,6.029,0.024,-0.011,0.005,105.0,103.0,102.0,13.4,1505.2,345.0,-0.8,1.8,2471.546,13.29,0.026,114.6
2023-09-02T09:49:03,42.805,6.029,0.014,0.016,0.01,104.0,106.0,101.0,13.4,1505.2,345.7,-0.8,1.8,2471.605,13.29,0.021,41.2
2023-09-02T09:52:03,42.805,6.029,0.014,0.002,-0.003,103.0,105.0,101.0,13.3,1505.2,352.8,-0.8,1.8,2471.568,13.29,0.014,81.9
2023-09-02T09:55:03,42.805,6.029,0.007,0.025,0.006,104.0,105.0,102.0,13.4,1505.2,346.4,-0.8,1.8,2471.575,13.29,0.025,15.6
2023-09-02T09:58:03,42.805,6.029,0.004,-0.017,-0.046,104.0,105.0,102.0,13.3,1505.2,343.0,-0.8,1.8,2471.539,13.29,0.017,166.8
2023-09-02T10:04:03,42.805,6.029,0.014,0.005,0.0,103.0,104.0,102.0,13.4,1505.2,341.5,-0.8,1.9,2471.577,13.29,0.014,70.4